| time (UTC) | temp F | wind direction | speed MPH | gust MPH | rain 1hr in | rain 24hr in | rain mn in | humidity % | barometer mb |
| 20260510054534 | 64 | 280 | 9.0 | 17.0 | 0.00 | 0.00 | 0.00 | 54 | 1011.4 |
| 20260510053106 | 64 | 285 | 11.0 | 17.0 | 0.00 | 0.00 | 0.00 | 54 | 1011.1 |
| 20260510051530 | 65 | 235 | 10.0 | 16.0 | 0.00 | 0.00 | 0.00 | 53 | 1011.3 |
| 20260510050048 | 64 | 198 | 7.0 | 16.0 | 0.00 | 0.00 | 0.00 | 54 | 1011.3 |
| 20260510044603 | 64 | 263 | 10.0 | 14.0 | 0.00 | 0.00 | 0.00 | 55 | 1011.5 |
| 20260510043041 | 64 | 238 | 7.0 | 15.0 | 0.00 | 0.00 | 0.00 | 55 | 1011.4 |
| 20260510041545 | 65 | 315 | 7.0 | 15.0 | 0.00 | 0.00 | 0.00 | 56 | 1011.4 |
| 20260510040012 | 65 | 265 | 8.0 | 16.0 | 0.00 | 0.00 | 0.00 | 57 | 1011.2 |
| 20260510034521 | 66 | 276 | 8.0 | 15.0 | 0.00 | 0.00 | 0.00 | 57 | 1011.2 |
| 20260510033058 | 67 | 246 | 7.0 | 15.0 | 0.00 | 0.00 | 0.00 | 57 | 1011.4 |
| 20260510031521 | 66 | 246 | 5.0 | 10.0 | 0.00 | 0.00 | 0.00 | 65 | 1011.3 |
| 20260510030021 | 66 | 205 | 6.0 | 10.0 | 0.00 | 0.00 | 0.00 | 64 | 1011.2 |
| 20260510024540 | 67 | 217 | 5.0 | 11.0 | 0.00 | 0.00 | 0.00 | 63 | 1011.1 |
| 20260510023051 | 67 | 207 | 7.0 | 11.0 | 0.00 | 0.00 | 0.00 | 63 | 1011.0 |
| 20260510021521 | 68 | 252 | 5.0 | 11.0 | 0.00 | 0.00 | 0.00 | 61 | 1010.7 |
| 20260510020033 | 68 | 212 | 4.0 | 10.0 | 0.00 | 0.00 | 0.00 | 61 | 1010.6 |
| 20260510014553 | 68 | 215 | 5.0 | 10.0 | 0.00 | 0.00 | 0.00 | 61 | 1010.5 |
| 20260510013022 | 68 | 188 | 7.0 | 11.0 | 0.00 | 0.00 | 0.00 | 61 | 1010.2 |
| 20260510011547 | 68 | 219 | 7.0 | 13.0 | 0.00 | 0.00 | 0.00 | 60 | 1010.1 |
| 20260510010111 | 67 | 207 | 7.0 | 11.0 | 0.00 | 0.00 | 0.00 | 61 | 1010.0 |
| 20260510004534 | 67 | 209 | 6.0 | 12.0 | 0.00 | 0.00 | 0.00 | 61 | 1009.7 |
| 20260510003058 | 67 | 186 | 5.0 | 16.0 | 0.00 | 0.00 | 0.00 | 61 | 1009.6 |
| 20260510001527 | 67 | 204 | 6.0 | 10.0 | 0.00 | 0.00 | 0.00 | 62 | 1009.3 |
| 20260510000050 | 68 | 205 | 5.0 | 11.0 | 0.00 | 0.00 | 0.00 | 61 | 1009.1 |
| 20260509234556 | 68 | 188 | 5.0 | 9.0 | 0.00 | 0.00 | 0.00 | 61 | 1009.0 |
| 20260509233018 | 68 | 190 | 6.0 | 9.0 | 0.00 | 0.00 | 0.00 | 60 | 1009.0 |
| 20260509231544 | 68 | 155 | 4.0 | 11.0 | 0.00 | 0.00 | 0.00 | 60 | 1009.1 |
| 20260509230004 | 69 | 188 | 6.0 | 10.0 | 0.00 | 0.00 | 0.00 | 59 | 1009.0 |
| 20260509224537 | 69 | 134 | 7.0 | 13.0 | 0.00 | 0.00 | 0.00 | 58 | 1009.1 |
| 20260509223054 | 70 | 196 | 7.0 | 14.0 | 0.00 | 0.00 | 0.00 | 58 | 1009.1 |
| 20260509221508 | 70 | 173 | 4.0 | 12.0 | 0.00 | 0.00 | 0.00 | 58 | 1009.1 |
| 20260509220036 | 71 | 185 | 3.0 | 10.0 | 0.00 | 0.00 | 0.00 | 57 | 1009.0 |
| 20260509214624 | 71 | 182 | 4.0 | 8.0 | 0.00 | 0.00 | 0.00 | 57 | 1009.0 |
| 20260509213031 | 68 | 155 | 3.0 | 11.0 | 0.00 | 0.00 | 0.00 | 59 | 1009.0 |
| 20260509211542 | 68 | 198 | 3.0 | 10.0 | 0.00 | 0.00 | 0.00 | 58 | 1008.9 |
| 20260509210006 | 69 | 207 | 5.0 | 14.0 | 0.00 | 0.00 | 0.00 | 57 | 1008.9 |
| 20260509204535 | 69 | 134 | 4.0 | 10.0 | 0.00 | 0.00 | 0.00 | 59 | 1008.6 |
| 20260509203102 | 69 | 132 | 7.0 | 14.0 | 0.00 | 0.00 | 0.00 | 57 | 1008.7 |
| 20260509201519 | 69 | 175 | 4.0 | 13.0 | 0.00 | 0.00 | 0.00 | 59 | 1008.6 |
| 20260509200038 | 70 | 128 | 6.0 | 12.0 | 0.00 | 0.00 | 0.00 | 56 | 1008.7 |
| 20260509194606 | 70 | 246 | 6.0 | 14.0 | 0.00 | 0.00 | 0.00 | 56 | 1008.9 |
| 20260509193032 | 69 | 232 | 6.0 | 10.0 | 0.00 | 0.00 | 0.00 | 57 | 1009.1 |
| 20260509191559 | 70 | 235 | 4.0 | 9.0 | 0.00 | 0.00 | 0.00 | 59 | 1009.2 |
| 20260509190008 | 69 | 225 | 10.0 | 17.0 | 0.00 | 0.00 | 0.00 | 56 | 1009.5 |
| 20260509184554 | 69 | 216 | 9.0 | 17.0 | 0.00 | 0.00 | 0.00 | 55 | 1009.5 |
| 20260509183008 | 69 | 288 | 4.0 | 15.0 | 0.00 | 0.00 | 0.00 | 60 | 1009.9 |
| 20260509181542 | 68 | 186 | 5.0 | 16.0 | 0.00 | 0.00 | 0.00 | 61 | 1010.1 |
| 20260509180002 | 68 | 226 | 5.0 | 14.0 | 0.00 | 0.00 | 0.00 | 64 | 1010.4 |
| 20260509174526 | 67 | 314 | 5.0 | 14.0 | 0.00 | 0.00 | 0.00 | 66 | 1010.4 |
| 20260509173053 | 66 | 232 | 4.0 | 19.0 | 0.00 | 0.00 | 0.00 | 67 | 1010.6 |
| 20260509171509 | 65 | 126 | 11.0 | 17.0 | 0.00 | 0.00 | 0.00 | 69 | 1010.9 |
| 20260509170032 | 63 | 188 | 6.0 | 11.0 | 0.00 | 0.00 | 0.00 | 72 | 1010.8 |
| 20260509164554 | 62 | 199 | 7.0 | 12.0 | 0.00 | 0.00 | 0.00 | 71 | 1010.8 |
| 20260509163012 | 63 | 210 | 8.0 | 13.0 | 0.00 | 0.00 | 0.00 | 70 | 1011.0 |
| 20260509161541 | 62 | 190 | 6.0 | 23.0 | 0.00 | 0.00 | 0.00 | 71 | 1010.8 |
| 20260509160100 | 63 | 180 | 5.0 | 17.0 | 0.00 | 0.00 | 0.00 | 72 | 1011.0 |
| 20260509154525 | 59 | 165 | 7.0 | 19.0 | 0.00 | 0.00 | 0.00 | 74 | 1011.0 |
| 20260509153051 | 58 | 168 | 6.0 | 12.0 | 0.00 | 0.00 | 0.00 | 76 | 1010.9 |
| 20260509151558 | 57 | 165 | 10.0 | 18.0 | 0.00 | 0.00 | 0.00 | 75 | 1011.2 |
| 20260509150025 | 57 | 199 | 5.0 | 17.0 | 0.00 | 0.00 | 0.00 | 74 | 1011.4 |
| 20260509144541 | 57 | 179 | 8.0 | 16.0 | 0.00 | 0.00 | 0.00 | 73 | 1011.3 |
| 20260509143016 | 55 | 151 | 6.0 | 15.0 | 0.00 | 0.00 | 0.00 | 77 | 1011.0 |
| 20260509141536 | 53 | 127 | 6.0 | 13.0 | 0.00 | 0.00 | 0.00 | 77 | 1011.2 |
| 20260509134519 | 53 | 123 | 6.0 | 13.0 | 0.00 | 0.00 | 0.00 | 76 | 1011.6 |
| 20260509133037 | 53 | 186 | 8.0 | 17.0 | 0.00 | 0.00 | 0.00 | 75 | 1011.6 |
| 20260509131601 | 53 | 174 | 8.0 | 17.0 | 0.00 | 0.00 | 0.00 | 75 | 1011.7 |
| 20260509130032 | 53 | 188 | 11.0 | 23.0 | 0.00 | 0.00 | 0.00 | 73 | 1011.9 |
| 20260509124552 | 53 | 200 | 8.0 | 15.0 | 0.00 | 0.00 | 0.00 | 71 | 1011.8 |
| 20260509123004 | 54 | 199 | 8.0 | 14.0 | 0.00 | 0.00 | 0.00 | 68 | 1011.8 |
| 20260509121527 | 53 | 174 | 8.0 | 24.0 | 0.00 | 0.00 | 0.00 | 67 | 1011.9 |
| 20260509120051 | 55 | 196 | 9.0 | 17.0 | 0.00 | 0.00 | 0.00 | 65 | 1011.7 |
| 20260509114610 | 55 | 205 | 10.0 | 15.0 | 0.00 | 0.00 | 0.00 | 65 | 1011.8 |
| 20260509113028 | 55 | 165 | 9.0 | 19.0 | 0.00 | 0.00 | 0.00 | 63 | 1011.8 |
| 20260509111547 | 55 | 218 | 9.0 | 17.0 | 0.00 | 0.00 | 0.00 | 63 | 1011.8 |
| 20260509110003 | 55 | 188 | 10.0 | 16.0 | 0.00 | 0.00 | 0.00 | 63 | 1011.9 |
| 20260509104535 | 53 | 190 | 9.0 | 20.0 | 0.00 | 0.00 | 0.00 | 63 | 1011.8 |
| 20260509103104 | 53 | 169 | 9.0 | 17.0 | 0.00 | 0.00 | 0.00 | 63 | 1011.8 |
| 20260509101525 | 53 | 198 | 8.0 | 14.0 | 0.00 | 0.00 | 0.00 | 62 | 1011.7 |
| 20260509100040 | 52 | 173 | 7.0 | 11.0 | 0.00 | 0.00 | 0.00 | 64 | 1011.7 |
| 20260509094606 | 51 | 194 | 5.0 | 11.0 | 0.00 | 0.00 | 0.00 | 65 | 1011.6 |
| 20260509093033 | 54 | 157 | 5.0 | 12.0 | 0.00 | 0.00 | 0.00 | 61 | 1011.9 |
| 20260509091558 | 53 | 186 | 7.0 | 10.0 | 0.00 | 0.00 | 0.00 | 61 | 1012.0 |
| 20260509090022 | 54 | 175 | 6.0 | 11.0 | 0.00 | 0.00 | 0.00 | 60 | 1012.2 |
| 20260509084549 | 56 | 158 | 6.0 | 12.0 | 0.00 | 0.00 | 0.00 | 56 | 1012.3 |
| 20260509083015 | 57 | 217 | 7.0 | 13.0 | 0.00 | 0.00 | 0.00 | 55 | 1012.4 |
| 20260509081533 | 56 | 207 | 6.0 | 10.0 | 0.00 | 0.00 | 0.00 | 54 | 1012.3 |
| 20260509074525 | 58 | 168 | 8.0 | 18.0 | 0.00 | 0.00 | 0.00 | 52 | 1012.6 |
| 20260509073053 | 58 | 246 | 8.0 | 17.0 | 0.00 | 0.00 | 0.00 | 51 | 1012.5 |
| 20260509071510 | 58 | 269 | 8.0 | 14.0 | 0.00 | 0.00 | 0.00 | 51 | 1012.4 |
| 20260509070036 | 58 | 225 | 10.0 | 17.0 | 0.00 | 0.00 | 0.00 | 50 | 1012.9 |
| 20260509064604 | 58 | 239 | 8.0 | 19.0 | 0.00 | 0.00 | 0.00 | 50 | 1013.0 |
| 20260509063034 | 58 | 236 | 12.0 | 25.0 | 0.00 | 0.00 | 0.00 | 50 | 1012.9 |
| 20260509061550 | 58 | 204 | 12.0 | 22.0 | 0.00 | 0.00 | 0.00 | 50 | 1013.0 |
| 20260509060107 | 58 | 261 | 11.0 | 20.0 | 0.00 | 0.00 | 0.00 | 50 | 1013.1 |